Location: Bern�tre
(50.1974°N, 2.0915°E)
Time: 08:43:14
(UTC+00:00)

Cosmos 1655 Rocket - Pass Details

Date: 18 September 2020
Orbit: 971 x 1005 km, 82.9° (Epoch: 27 October)

Event Time Altitude Azimuth Distance (km) Brightness Sun altitude
Rises 21:03:41 0° 350° (N) 3,686 7.8 -27.9°
Reaches altitude 10° 21:06:12 10° 352° (N) 2,737 7.0 -28.2°
Maximum altitude 21:12:30 81° 80° (E) 1,001 3.9 -28.9°
Enters shadow 21:12:32 81° 86° (E) 1,001 3.8 -28.9°
